User: anonymous   Login
Location: Unspecified
(0.0000°N, 0.0000°E)
Time: 23:17:24
(UTC+00:00)
Language:

STARLINK-2637 - Orbit

View from above orbital plane
View from above orbital plane
View from above satellite
View from above satellite

Ground track
Ground track

The orbit is defined by the following mean orbital elements,

1 48356U          26145.62334830 +.00000000 +00000-0 +13013-3 0 00007
2 48356  53.1606   0.5811 0001940  80.9893 279.1328 15.31708986    05
Epoch (UTC): 25 May 2026 14:57:37
Eccentricity: 0.0001940
inclination: 53.1606°
perigee height: 469 km
apogee height: 472 km
right ascension of ascending node: 0.5811°
argument of perigee: 80.9893°
revolutions per day: 15.31708986
mean anomaly at epoch: 279.1328°

The dashed part of the orbit path shows where the satellite is in the earth's shadow,  

DLR